Temperature
4 4 4 5 5 4 4 4 5 5 4 6 6 5 7 7 8 8 8 8 8 7 7 7 7 7 6 6 6 6 6 5 5 5 5 5 5 5 5 4 4 4 4 4
4 4 4 4 4 4 4 4 4 5 5 5 6 7 7 7 7 7 8 8 7 7 7 7 6 6 6 6 5 5 5 5 5 5 5 5 4 4 4 4 4 4 4 3
4 3 4 5 5 4 4 4 4 5 6 5 5 5 6 7 7 7 7 7 7 7 7 6 6 6 5 5 5 5 5 5 4 4 4 4 4 4 4 4 3 3 3 3
3 4 5 7 6 5 4 4 4 5 5 5 5 6 7 7 7 7 7 7 7 6 6 6 6 5 5 5 4 4 4 4 4 4 4 4 4 4 3 3 3 3 3 2
3 3 4 5 5 4 4 5 4 4 5 5 5 5 6 7 7 7 7 6 6 6 6 5 5 5 5 4 4 4 4 4 4 4 4 3 3 3 3 3 3 2 2 2
3 4 5 7 6 6 5 6 6 4 4 4 4 4 5 7 7 6 6 6 6 5 5 5 5 4 4 4 4 4 4 3 3 3 3 3 3 3 2 2 2 2 2 2
3 3 4 5 5 6 6 7 6 6 5 5 4 5 7 6 6 6 6 5 5 5 5 4 4 4 4 4 4 3 3 3 3 3 3 2 2 2 2 2 2 2 1 1
2 3 4 5 4 5 6 7 7 6 6 6 6 6 6 6 5 5 5 5 5 4 4 4 4 3 3 3 3 3 3 3 3 2 2 2 2 2 1 1 1 1 1 1
3 5 5 5 6 7 7 7 7 7 6 6 6 6 5 5 5 5 4 4 4 4 4 4 3 3 3 3 3 3 2 2 2 2 2 2 1 1 1 1 1 0 0 0
1 2 4 5 6 6 6 6 6 6 6 6 5 5 5 4 4 4 4 4 3 3 3 3 3 3 3 2 2 2 2 2 2 2 1 1 1 1 0 0 -0 -0 -0 -0
1 2 4 5 6 7 6 6 6 6 5 5 5 4 4 4 4 4 3 3 3 3 3 3 2 2 2 2 2 2 1 1 1 1 1 1 0 0 -0 -0 -1 -1 -1 -1
4 4 4 6 7 6 6 6 6 5 5 5 4 4 4 3 3 3 3 3 3 2 2 2 2 2 2 1 1 1 1 1 1 0 0 0 -0 -0 -0 -1 -1 -1 -1 -2
6 6 6 5 5 5 5 5 5 4 4 4 4 3 3 3 3 3 2 2 2 2 2 2 2 2 2 1 1 1 0 0 0 -0 -0 -1 -1 -1 -1 -1 -1 -1 -2 -2
5 5 4 4 5 4 4 4 4 4 3 3 3 3 2 2 2 2 2 2 2 2 2 1 1 1 1 1 0 0 0 -0 -0 -1 -1 -1 -1 -1 -2 -2 -2 -1 -2 -2
4 4 4 4 4 3 3 3 3 3 3 2 2 2 2 2 2 2 2 1 1 1 1 1 1 1 1 0 0 -0 -0 -1 -1 -1 -1 -1 -2 -2 -2 -3 -3 -3 -3 -3
3 3 3 3 3 2 2 2 2 2 2 2 2 2 1 1 1 1 1 1 1 1 1 1 1 1 0 -0 -0 -1 -1 -1 -1 -1 -2 -2 -2 -3 -3 -3 -3 -3 -3 -3
2 2 2 2 2 2 2 2 2 2 2 1 1 1 1 1 1 1 1 1 1 1 0 0 0 -0 -0 -0 -1 -1 -1 -1 -1 -2 -2 -2 -3 -3 -3 -4 -4 -4 -4 -4
2 2 2 2 1 1 1 1 1 1 1 1 1 1 1 1 1 1 1 0 0 0 0 0 -0 -0 -1 -1 -1 -1 -2 -2 -2 -2 -2 -3 -3 -3 -4 -4 -4 -4 -4 -4
1 1 1 1 1 1 1 1 1 1 1 1 0 0 0 0 0 0 -0 -0 -0 -0 -0 -0 -1 -1 -1 -1 -2 -2 -2 -2 -2 -3 -3 -3 -3 -4 -4 -4 -4 -5 -5 -5
1 1 1 1 1 0 0 0 0 0 0 0 0 0 0 0 -0 -0 -1 -1 -1 -1 -1 -1 -1 -1 -1 -2 -2 -2 -2 -3 -3 -3 -3 -4 -4 -4 -4 -5 -5 -5 -5 -5
1 1 0 0 0 0 0 0 0 -0 -0 -0 -0 -0 -0 -0 -1 -1 -1 -1 -1 -1 -1 -1 -2 -2 -2 -2 -2 -3 -3 -3 -4 -4 -4 -4 -4 -4 -5 -5 -5 -5 -5 -5
0 0 -0 -0 -0 -0 -0 -0 -0 -1 -1 -1 -1 -1 -1 -1 -1 -1 -1 -1 -1 -1 -2 -2 -2 -2 -2 -3 -3 -3 -3 -4 -4 -4 -4 -4 -5 -5 -5 -5 -5 -5 -5 -6
-0 -0 -1 -1 -1 -1 -1 -1 -1 -1 -1 -1 -1 -1 -1 -1 -2 -2 -2 -1 -2 -2 -2 -2 -2 -3 -3 -3 -3 -4 -4 -4 -4 -5 -5 -5 -5 -5 -5 -5 -5 -6 -6 -6
-1 -1 -1 -1 -1 -1 -1 -1 -1 -1 -1 -1 -1 -1 -2 -2 -2 -2 -2 -2 -2 -2 -2 -3 -3 -3 -3 -4 -4 -4 -4 -4 -4 -5 -5 -5 -5 -5 -5 -6 -6 -6 -6 -6
-1 -1 -1 -1 -1 -1 -1 -2 -2 -2 -2 -2 -2 -2 -2 -2 -2 -2 -2 -2 -3 -3 -3 -3 -3 -3 -4 -4 -4 -4 -4 -5 -5 -5 -5 -5 -5 -5 -6 -6 -6 -6 -6 -6
-2 -2 -2 -2 -2 -2 -2 -2 -2 -2 -2 -2 -2 -2 -2 -2 -3 -3 -3 -3 -3 -3 -3 -3 -3 -4 -4 -4 -4 -4 -5 -5 -5 -5 -5 -5 -5 -6 -6 -6 -6 -6 -6 -6
-2 -2 -2 -2 -2 -2 -2 -2 -3 -2 -3 -3 -3 -2 -3 -3 -3 -3 -3 -3 -3 -3 -4 -4 -4 -4 -4 -5 -5 -5 -5 -5 -5 -5 -6 -6 -6 -6 -6 -6 -6 -6 -6 -6
Wind_Speed
5 5 4 6 7 8 9 9 9 8 8 10 7 7 6 4 3 2 3 3 3 3 3 3 3 3 3 4 4 3 3 3 4 4 4 4 4 4 4 4 5 5 5 5
4 2 4 7 11 11 12 9 11 10 12 9 6 4 4 5 4 4 4 4 4 4 4 4 4 4 4 4 4 3 3 4 4 4 4 4 4 4 4 5 5 5 5 6
4 5 6 9 10 12 7 8 9 12 10 4 4 6 7 6 6 6 5 5 5 5 5 5 5 4 4 4 4 3 4 4 4 4 5 5 5 4 5 5 5 5 6 6
2 4 7 7 1 6 7 7 10 8 6 5 6 4 4 5 6 6 5 5 5 4 4 4 3 3 3 3 3 3 4 5 5 4 5 5 4 5 5 5 5 6 6 7
1 3 9 9 3 5 6 6 7 10 8 5 1 2 4 4 5 5 5 5 4 4 4 3 4 3 2 3 3 4 5 5 5 5 5 5 5 6 5 5 6 6 6 7
3 4 7 6 1 3 3 5 4 6 6 4 4 1 5 3 3 4 4 3 3 3 2 3 4 2 2 4 4 5 6 6 5 5 5 6 6 6 5 5 6 6 7 7
6 7 9 7 2 4 3 6 2 5 5 6 6 6 3 2 2 3 3 3 3 3 3 4 3 2 3 5 6 6 6 6 6 5 6 6 6 5 5 6 6 7 8 8
7 7 10 4 6 7 7 2 2 3 4 5 6 4 3 3 3 3 3 3 2 3 4 4 3 3 5 7 6 5 5 6 6 6 6 5 5 6 5 5 6 7 7 9
10 10 4 4 6 4 3 3 3 4 4 4 5 5 4 4 4 4 4 4 3 3 5 5 4 4 6 7 5 5 5 6 6 6 6 5 5 6 6 5 5 7 6 8
7 9 8 7 7 5 5 5 5 5 5 5 5 5 5 5 4 4 4 4 3 3 5 6 5 5 7 7 5 5 6 7 6 6 7 6 5 5 5 6 6 7 7 8
8 8 7 7 8 8 7 6 5 5 5 6 6 6 6 5 5 5 5 4 4 5 6 7 7 7 7 6 5 6 7 7 7 6 6 7 7 6 7 8 8 9 8 8
10 8 6 6 5 5 6 7 7 6 6 5 6 7 6 6 5 5 5 5 5 6 7 7 7 8 8 6 5 6 7 7 6 6 6 6 7 8 11 12 15 16 16 14
10 6 6 6 5 5 6 7 6 7 7 6 5 6 5 5 5 5 5 6 6 7 7 7 7 8 8 6 6 6 7 8 6 6 6 6 6 7 9 9 11 14 15 16
7 5 5 6 6 5 5 5 4 4 5 5 5 4 4 5 5 6 7 7 6 7 7 7 8 9 8 6 6 7 7 8 8 7 7 7 7 7 7 9 9 8 9 13
7 7 7 5 4 4 3 3 3 4 4 4 4 4 5 5 6 7 7 6 6 7 8 7 8 10 7 6 7 7 7 6 6 6 7 7 7 7 7 8 9 9 8 8
5 4 5 5 7 6 5 5 5 6 5 5 5 6 6 6 6 7 7 5 6 8 9 8 10 9 7 6 7 7 7 10 9 7 7 7 7 7 8 8 8 8 8 7
5 5 6 6 7 7 6 7 7 7 6 6 7 6 5 5 6 7 8 6 7 8 9 9 10 9 8 7 7 6 6 8 10 8 7 8 8 8 8 8 8 9 8 9
8 8 7 7 6 7 7 6 6 6 6 6 5 4 5 6 8 9 8 7 7 9 10 9 9 9 8 7 7 6 6 7 7 7 7 8 8 8 8 8 9 10 9 9
5 6 6 6 6 6 5 5 6 5 5 4 5 6 7 7 8 8 7 7 8 10 10 8 10 8 8 9 8 6 6 7 8 8 8 10 10 8 8 8 9 9 8 7
2 2 3 3 3 3 4 4 4 4 4 4 5 6 7 8 8 7 7 8 9 9 9 10 9 8 8 8 9 6 7 8 8 8 8 8 8 9 8 9 9 8 8 7
2 2 2 3 3 3 4 4 4 5 5 4 6 7 9 9 7 6 6 9 9 8 9 12 8 7 7 8 10 6 7 8 8 8 9 9 9 9 9 8 8 8 7 7
2 2 3 3 3 4 4 4 4 5 6 6 7 8 8 9 9 8 9 9 10 11 8 7 7 10 11 12 7 7 8 8 8 8 8 8 9 9 9 9 8 8 7 7
4 4 4 4 5 5 5 5 5 6 7 8 8 9 9 9 7 7 10 7 6 11 8 7 11 15 17 10 7 7 8 9 9 8 8 8 8 9 9 9 8 7 7 6
5 5 5 4 3 4 6 7 7 6 7 8 9 9 9 8 8 7 8 11 13 14 9 11 16 17 16 7 7 7 8 8 8 8 8 8 8 8 8 8 8 7 7 7
5 5 5 5 5 6 7 7 7 7 8 8 9 9 8 7 8 8 7 8 13 14 9 12 16 16 10 7 7 8 8 8 8 8 7 7 8 7 7 7 7 6 6 6
6 6 6 7 7 7 6 6 6 7 7 8 8 7 6 6 8 8 8 9 11 13 10 8 8 10 7 7 8 8 8 9 9 8 7 7 8 7 7 7 7 6 6 6
6 6 6 6 7 6 6 6 7 8 7 8 9 8 7 6 6 7 8 8 8 8 8 8 7 7 7 7 8 8 7 7 7 7 7 7 6 7 7 7 6 5 5 5
Wind_Direction
253 264 237 239 235 208 206 208 215 239 240 256 247 241 241 232 222 209 222 224 229 244 258 273 284 289 292 293 297 296 294 288 279 282 285 287 289 288 288 281 270 263 259 257
293 289 264 263 248 228 227 228 237 257 268 254 243 226 232 226 211 213 228 237 247 253 254 262 269 277 287 290 295 292 280 277 279 284 289 289 288 291 292 287 280 270 261 259
282 312 324 272 240 211 210 210 201 230 247 246 222 227 228 224 213 217 231 243 250 251 249 255 256 256 265 277 289 291 283 284 285 285 287 286 288 291 286 283 280 276 270 262
294 354 257 250 211 187 209 238 218 233 247 235 230 241 242 216 207 223 234 241 247 247 251 254 253 260 267 277 284 286 285 286 285 283 284 287 287 283 281 279 277 275 273 267
179 268 279 290 246 176 194 267 222 224 242 240 220 7 303 232 204 217 226 232 238 241 242 247 258 262 271 282 284 283 281 281 283 281 282 286 284 282 280 279 280 276 274 269
179 230 252 259 209 169 132 283 241 200 214 193 134 196 267 245 211 232 242 244 244 249 250 258 269 265 264 275 279 275 274 277 281 279 275 275 276 279 278 273 275 279 278 269
210 238 265 256 209 132 183 256 232 188 192 175 189 216 243 232 234 234 241 250 254 256 258 259 261 251 264 271 269 269 275 282 283 277 271 271 275 274 277 280 283 282 281 279
186 217 254 215 148 185 220 244 182 190 192 198 221 244 250 241 247 253 258 262 259 262 272 273 257 246 265 270 270 276 280 282 281 279 276 278 273 277 274 271 280 284 285 287
200 219 250 190 205 224 197 208 214 209 221 212 227 244 248 251 252 259 258 262 261 258 276 282 267 244 260 272 279 283 282 281 282 283 278 271 266 273 279 271 271 279 279 282
246 261 257 250 246 244 220 221 230 224 222 208 225 240 247 255 258 262 263 261 260 265 273 279 276 265 259 271 276 274 277 281 281 281 284 278 267 260 263 267 268 272 274 277
250 268 283 263 235 233 232 227 232 232 222 218 220 235 238 247 253 255 260 264 255 255 263 270 276 276 275 271 268 271 274 276 277 273 273 278 273 260 258 254 252 260 266 266
240 235 221 251 242 221 219 229 227 227 235 228 217 230 236 242 248 250 256 260 263 262 264 271 274 275 276 270 258 261 275 275 273 273 273 272 278 285 267 259 268 266 265 268
242 243 227 250 253 228 225 232 229 224 224 230 233 228 231 242 249 251 258 261 260 263 267 272 275 276 275 267 257 254 262 271 275 274 273 276 277 282 292 291 274 270 271 274
240 238 253 248 248 242 236 239 232 227 227 224 229 233 235 244 255 258 262 263 265 270 273 273 274 276 274 264 258 259 262 268 269 269 270 273 274 274 275 283 293 290 283 280
238 225 233 247 252 252 238 224 223 236 237 240 231 235 238 244 256 264 270 273 275 273 273 272 274 277 277 267 262 263 267 268 267 268 270 271 272 273 274 274 277 283 289 287
238 233 235 243 249 248 239 227 230 239 237 237 242 245 244 248 260 271 276 269 268 274 276 276 275 277 277 269 268 269 267 270 272 272 273 273 272 272 274 273 275 277 279 280
216 237 236 243 244 243 237 233 233 238 237 241 246 249 254 263 274 277 278 270 260 266 270 270 273 277 273 264 262 267 269 274 275 276 270 270 272 271 271 271 272 274 273 273
224 231 233 232 234 238 242 239 235 234 236 240 245 248 251 255 264 273 280 288 289 285 277 265 264 270 269 265 261 262 264 269 271 271 273 273 274 270 269 269 270 272 275 276
233 233 238 238 233 228 235 240 239 238 241 238 238 246 252 257 260 269 278 281 281 284 283 273 275 274 272 270 271 261 262 268 273 272 271 276 279 272 269 268 269 270 271 272
246 243 238 244 241 233 239 246 245 250 251 242 248 260 267 268 264 266 269 270 263 258 267 278 282 277 272 270 272 260 259 264 270 274 274 272 272 273 271 269 268 268 268 268
251 255 255 257 263 259 248 243 243 255 263 252 249 257 265 272 269 264 267 279 277 261 262 274 274 271 273 274 277 264 261 265 269 271 273 273 274 274 273 270 269 268 266 265
260 255 255 256 263 276 274 261 254 261 268 266 262 261 267 273 274 269 257 256 268 276 279 270 268 273 279 282 269 265 265 266 269 270 271 272 272 273 273 271 269 267 264 262
256 254 256 258 261 272 284 277 263 261 264 266 265 264 262 264 264 266 279 270 260 275 279 270 275 282 287 284 268 265 266 266 267 267 268 269 269 270 271 271 269 266 264 263
257 256 257 259 260 272 279 278 271 263 260 264 262 259 258 268 272 255 253 272 280 283 279 278 284 287 291 279 267 265 265 265 265 265 266 268 269 268 268 268 269 266 263 261
261 262 263 263 266 267 268 274 279 275 269 269 267 261 251 243 253 268 268 268 276 283 280 281 284 287 284 271 267 265 265 264 265 266 263 265 266 266 266 264 263 263 262 260
262 263 264 259 259 263 266 267 271 274 274 277 279 271 259 251 251 259 267 267 267 276 277 274 274 278 273 269 268 267 266 271 274 269 264 264 265 264 263 263 261 261 261 260
267 267 270 273 268 256 253 255 260 267 265 265 274 277 270 266 263 263 265 268 270 270 269 269 267 266 268 268 268 266 265 265 264 264 264 262 261 261 260 258 260 260 259 256
Height
1519 1518 1518 1516 1515 1517 1517 1515 1516 1508 1506 1495 1494 1493 1492 1492 1493 1494 1494 1495 1496 1496 1496 1496 1496 1495 1494 1493 1491 1490 1489 1488 1486 1485 1484 1483 1481 1480 1478 1477 1475 1474 1472 1471
1519 1516 1517 1515 1509 1509 1509 1508 1506 1503 1498 1489 1489 1490 1490 1490 1491 1491 1492 1493 1493 1493 1493 1493 1492 1491 1490 1489 1488 1487 1486 1484 1483 1482 1480 1479 1477 1476 1474 1472 1471 1469 1467 1465
1520 1518 1512 1508 1497 1498 1500 1497 1497 1496 1490 1486 1487 1487 1486 1487 1488 1488 1489 1490 1490 1490 1490 1489 1489 1488 1487 1486 1485 1483 1482 1481 1479 1478 1476 1474 1473 1471 1469 1467 1466 1464 1462 1460
1523 1518 1512 1492 1488 1489 1492 1490 1489 1486 1484 1484 1484 1484 1484 1485 1485 1486 1486 1487 1487 1487 1487 1486 1485 1484 1483 1482 1481 1480 1479 1477 1475 1473 1471 1470 1468 1466 1464 1462 1460 1458 1456 1454
1523 1521 1508 1492 1486 1487 1489 1486 1482 1482 1481 1482 1482 1483 1482 1482 1483 1483 1484 1484 1484 1484 1483 1483 1482 1481 1480 1479 1477 1476 1475 1473 1471 1469 1467 1465 1463 1461 1459 1457 1454 1452 1450 1448
1520 1515 1503 1485 1483 1483 1486 1484 1477 1477 1479 1480 1482 1486 1482 1480 1480 1481 1481 1481 1481 1480 1480 1479 1478 1477 1476 1475 1473 1472 1470 1469 1467 1465 1462 1460 1458 1456 1454 1451 1449 1447 1445 1443
1516 1513 1498 1484 1482 1483 1489 1481 1476 1475 1476 1478 1479 1480 1479 1478 1478 1479 1478 1478 1477 1477 1476 1475 1474 1473 1472 1470 1469 1467 1466 1464 1462 1460 1458 1455 1453 1451 1449 1446 1444 1441 1439 1437
1510 1510 1495 1479 1480 1482 1478 1474 1474 1474 1475 1475 1476 1476 1476 1476 1476 1476 1475 1474 1474 1473 1472 1472 1470 1469 1467 1466 1465 1463 1461 1459 1457 1455 1453 1450 1448 1445 1443 1441 1438 1435 1432 1430
1492 1484 1476 1474 1474 1473 1473 1473 1473 1473 1473 1474 1474 1473 1473 1473 1472 1472 1472 1471 1470 1469 1468 1467 1467 1465 1463 1462 1460 1458 1456 1454 1452 1450 1448 1445 1442 1440 1437 1435 1432 1429 1426 1423
1486 1476 1472 1471 1471 1471 1471 1471 1470 1471 1471 1471 1470 1470 1470 1470 1469 1468 1468 1467 1466 1465 1464 1463 1462 1461 1459 1457 1455 1453 1451 1449 1447 1444 1442 1439 1437 1434 1431 1428 1426 1422 1420 1417
1478 1470 1468 1465 1465 1466 1467 1467 1467 1467 1467 1467 1466 1466 1466 1466 1465 1465 1464 1463 1462 1461 1460 1459 1457 1456 1454 1452 1450 1447 1445 1443 1441 1438 1435 1433 1430 1428 1425 1422 1420 1417 1414 1411
1467 1463 1464 1461 1462 1462 1462 1462 1462 1462 1462 1462 1462 1462 1462 1461 1461 1460 1460 1459 1457 1456 1455 1454 1452 1451 1449 1447 1445 1442 1439 1437 1434 1432 1429 1426 1423 1420 1418 1416 1413 1410 1407 1405
1457 1457 1458 1457 1457 1458 1457 1457 1457 1457 1457 1457 1457 1457 1457 1457 1456 1456 1455 1454 1453 1451 1450 1449 1447 1445 1444 1441 1439 1436 1434 1431 1428 1426 1423 1420 1417 1413 1410 1408 1406 1403 1401 1398
1453 1453 1452 1452 1452 1453 1453 1452 1452 1452 1452 1452 1453 1453 1452 1452 1452 1451 1450 1449 1448 1447 1445 1443 1441 1440 1438 1436 1433 1430 1428 1425 1422 1420 1417 1414 1410 1407 1404 1400 1397 1394 1393 1391
1447 1448 1448 1447 1448 1448 1448 1447 1447 1447 1447 1448 1448 1448 1448 1447 1447 1446 1445 1444 1443 1441 1440 1438 1436 1434 1432 1430 1427 1424 1421 1419 1416 1413 1410 1407 1404 1401 1397 1394 1391 1388 1385 1384
1442 1442 1443 1443 1442 1442 1442 1442 1442 1442 1443 1443 1443 1443 1443 1443 1442 1441 1440 1439 1437 1435 1434 1432 1430 1428 1426 1423 1420 1418 1415 1412 1410 1406 1403 1400 1397 1394 1391 1388 1385 1382 1379 1377
1437 1437 1437 1438 1438 1437 1438 1438 1438 1438 1438 1438 1438 1438 1438 1437 1437 1436 1435 1434 1432 1430 1428 1426 1424 1422 1419 1417 1414 1411 1408 1406 1403 1400 1397 1394 1391 1387 1385 1382 1379 1376 1374 1372
1432 1432 1433 1433 1433 1433 1433 1433 1433 1433 1433 1434 1434 1434 1433 1433 1431 1430 1429 1427 1425 1423 1422 1420 1418 1415 1413 1410 1408 1405 1402 1399 1396 1393 1390 1387 1384 1381 1378 1375 1372 1370 1367 1366
1427 1427 1428 1428 1429 1429 1429 1429 1429 1429 1429 1430 1429 1429 1428 1427 1427 1425 1423 1421 1419 1417 1415 1414 1411 1408 1406 1403 1401 1398 1395 1392 1389 1386 1383 1380 1377 1374 1372 1369 1366 1364 1362 1359
1424 1424 1425 1425 1425 1425 1425 1425 1425 1425 1425 1425 1425 1424 1423 1422 1421 1419 1417 1415 1413 1411 1409 1407 1404 1401 1399 1396 1394 1390 1388 1385 1382 1379 1376 1373 1370 1367 1365 1362 1360 1358 1356 1354
1422 1422 1422 1422 1422 1422 1422 1422 1422 1421 1421 1421 1420 1419 1417 1416 1415 1413 1410 1408 1406 1405 1402 1400 1397 1394 1392 1389 1386 1383 1381 1378 1375 1372 1369 1366 1363 1361 1358 1356 1354 1352 1350 1348
1419 1419 1419 1419 1419 1419 1419 1418 1418 1417 1417 1416 1415 1413 1412 1410 1408 1406 1404 1402 1400 1398 1395 1392 1390 1388 1385 1382 1379 1376 1374 1371 1368 1365 1362 1360 1357 1354 1352 1349 1347 1346 1344 1342
1417 1417 1417 1416 1416 1415 1415 1414 1414 1413 1412 1410 1409 1408 1406 1404 1402 1400 1397 1395 1393 1391 1388 1386 1383 1381 1378 1375 1372 1369 1367 1364 1361 1359 1356 1353 1351 1348 1345 1343 1341 1340 1338 1337
1414 1414 1413 1413 1412 1411 1410 1409 1409 1407 1406 1404 1403 1401 1399 1397 1394 1393 1391 1388 1386 1384 1381 1379 1376 1373 1371 1368 1365 1362 1360 1357 1354 1352 1349 1347 1344 1342 1340 1337 1336 1334 1333 1331
1410 1409 1408 1408 1407 1406 1405 1404 1402 1401 1399 1397 1396 1394 1392 1390 1388 1386 1384 1382 1379 1377 1374 1371 1369 1366 1363 1360 1358 1355 1353 1350 1348 1345 1343 1341 1338 1336 1334 1332 1330 1329 1327 1326
1404 1404 1403 1402 1401 1400 1399 1397 1396 1394 1392 1390 1388 1387 1385 1383 1381 1379 1376 1374 1372 1369 1366 1364 1361 1358 1356 1353 1351 1348 1346 1343 1341 1339 1337 1334 1332 1330 1328 1326 1325 1324 1322 1321
1399 1398 1397 1395 1394 1393 1392 1391 1389 1387 1385 1383 1381 1379 1377 1376 1374 1371 1369 1366 1364 1361 1359 1356 1353 1351 1348 1346 1343 1341 1339 1336 1334 1332 1330 1328 1326 1325 1323 1321 1320 1319 1318 1317